Track STARLINK-1513 now! 10-day predictions STARLINK-1513 is classified as:
1 45786U 20038BJ 22185.52675439 -.00002640 00000-0 -15844-3 0 9991 2 45786 53.0561 110.8169 0002161 62.0970 298.0237 15.06384971114160